| time (UTC) | temp F | wind direction | speed MPH | gust MPH | rain 1hr in | rain 24hr in | rain mn in | humidity % | barometer mb |
| 20260505041540 | 76 | 131 | 3.0 | 13.0 | 0.00 | 0.00 | 0.00 | 31 | 1006.7 |
| 20260505040040 | 76 | 98 | 3.0 | 10.0 | 0.00 | 0.00 | 0.00 | 30 | 1006.5 |
| 20260505034539 | 77 | 127 | 4.0 | 15.0 | 0.00 | 0.00 | 0.00 | 30 | 1006.3 |
| 20260505033041 | 77 | 134 | 4.0 | 14.0 | 0.00 | 0.00 | 0.00 | 29 | 1006.1 |
| 20260505031551 | 78 | 163 | 3.0 | 11.0 | 0.00 | 0.00 | 0.00 | 28 | 1005.9 |
| 20260505030037 | 80 | 116 | 5.0 | 11.0 | 0.00 | 0.00 | 0.00 | 26 | 1005.7 |
| 20260505024546 | 81 | 115 | 6.0 | 17.0 | 0.00 | 0.00 | 0.00 | 25 | 1005.6 |
| 20260505023041 | 82 | 118 | 5.0 | 12.0 | 0.00 | 0.00 | 0.00 | 24 | 1005.5 |
| 20260505021536 | 83 | 121 | 5.0 | 15.0 | 0.00 | 0.00 | 0.00 | 24 | 1005.5 |
| 20260505020034 | 83 | 150 | 4.0 | 14.0 | 0.00 | 0.00 | 0.00 | 22 | 1005.4 |
| 20260505014551 | 84 | 188 | 5.0 | 13.0 | 0.00 | 0.00 | 0.00 | 21 | 1005.4 |
| 20260505013033 | 85 | 128 | 4.0 | 15.0 | 0.00 | 0.00 | 0.00 | 21 | 1005.4 |
| 20260505011536 | 90 | 96 | 3.0 | 7.0 | 0.00 | 0.00 | 0.00 | 19 | 1005.3 |
| 20260505010030 | 90 | 69 | 1.0 | 4.0 | 0.00 | 0.00 | 0.00 | 19 | 1005.4 |
| 20260505004528 | 88 | 46 | 1.0 | 5.0 | 0.00 | 0.00 | 0.00 | 21 | 1005.5 |
| 20260505003027 | 88 | 346 | 0.0 | 4.0 | 0.00 | 0.00 | 0.00 | 21 | 1005.5 |
| 20260505001526 | 89 | 32 | 3.0 | 5.0 | 0.00 | 0.00 | 0.00 | 19 | 1005.5 |
| 20260505000025 | 88 | 108 | 1.0 | 5.0 | 0.00 | 0.00 | 0.00 | 20 | 1005.6 |
| 20260504234524 | 88 | 311 | 1.0 | 5.0 | 0.00 | 0.00 | 0.00 | 19 | 1005.5 |
| 20260504233027 | 88 | 120 | 3.0 | 7.0 | 0.00 | 0.00 | 0.00 | 19 | 1005.7 |
| 20260504231521 | 87 | 263 | 0.0 | 4.0 | 0.00 | 0.00 | 0.00 | 19 | 1005.7 |
| 20260504230021 | 88 | 101 | 2.0 | 4.0 | 0.00 | 0.00 | 0.00 | 19 | 1005.9 |
| 20260504224520 | 88 | 75 | 3.0 | 7.0 | 0.00 | 0.00 | 0.00 | 19 | 1006.1 |
| 20260504223015 | 87 | 219 | 0.0 | 2.0 | 0.00 | 0.00 | 0.00 | 20 | 1006.2 |
| 20260504221512 | 86 | 104 | 2.0 | 4.0 | 0.00 | 0.00 | 0.00 | 20 | 1006.4 |
| 20260504220011 | 86 | 276 | 0.0 | 5.0 | 0.00 | 0.00 | 0.00 | 19 | 1006.7 |
| 20260504214508 | 86 | 58 | 4.0 | 8.0 | 0.00 | 0.00 | 0.00 | 19 | 1006.9 |
| 20260504213011 | 87 | 89 | 2.0 | 7.0 | 0.00 | 0.00 | 0.00 | 20 | 1007.0 |
| 20260504211513 | 85 | 79 | 1.0 | 5.0 | 0.00 | 0.00 | 0.00 | 21 | 1007.2 |
| 20260504210003 | 86 | 71 | 1.0 | 6.0 | 0.00 | 0.00 | 0.00 | 19 | 1007.4 |
| 20260504204501 | 86 | 352 | 2.0 | 6.0 | 0.00 | 0.00 | 0.00 | 21 | 1007.6 |
| 20260504203134 | 85 | 112 | 2.0 | 10.0 | 0.00 | 0.00 | 0.00 | 21 | 1007.7 |
| 20260504201557 | 85 | 107 | 1.0 | 6.0 | 0.00 | 0.00 | 0.00 | 20 | 1007.8 |
| 20260504200055 | 84 | 44 | 0.0 | 4.0 | 0.00 | 0.00 | 0.00 | 21 | 1008.1 |
| 20260504194554 | 85 | 188 | 1.0 | 5.0 | 0.00 | 0.00 | 0.00 | 20 | 1008.1 |
| 20260504193052 | 84 | 108 | 0.0 | 4.0 | 0.00 | 0.00 | 0.00 | 22 | 1008.3 |
| 20260504191553 | 83 | 259 | 1.0 | 3.0 | 0.00 | 0.00 | 0.00 | 24 | 1008.5 |
| 20260504190052 | 84 | 198 | 0.0 | 3.0 | 0.00 | 0.00 | 0.00 | 22 | 1008.7 |
| 20260504184545 | 83 | 273 | 2.0 | 4.0 | 0.00 | 0.00 | 0.00 | 22 | 1008.8 |
| 20260504183041 | 82 | 350 | 3.0 | 6.0 | 0.00 | 0.00 | 0.00 | 23 | 1008.9 |
| 20260504181538 | 81 | 29 | 0.0 | 4.0 | 0.00 | 0.00 | 0.00 | 24 | 1009.0 |
| 20260504180034 | 79 | 211 | 1.0 | 3.0 | 0.00 | 0.00 | 0.00 | 26 | 1009.0 |
| 20260504174533 | 78 | 112 | 1.0 | 4.0 | 0.00 | 0.00 | 0.00 | 30 | 1009.0 |
| 20260504173027 | 76 | 95 | 2.0 | 5.0 | 0.00 | 0.00 | 0.00 | 30 | 1009.1 |
| 20260504171525 | 75 | 109 | 3.0 | 6.0 | 0.00 | 0.00 | 0.00 | 28 | 1009.3 |
| 20260504081507 | 58 | 131 | 0.0 | 0.0 | 0.00 | 0.00 | 0.00 | 64 | 1009.0 |